Weather History for Montpelier, VT

Change the Weather History Date:

Thursday, January 16, 2014

  Actual Average Record
Temperature  
Mean Temperature 29 °F 16 °F  
Max Temperature 31 °F 26 °F 64 °F (1995)
Min Temperature 26 °F 7 °F -26 °F (2009)
Degree Days  
Heating Degree Days 36 49  
Month to date heating degree days 735 772  
Since 1 July heating degree days 3993 3920  
Moisture  
Dew Point 26 °F    
Average Humidity 92    
Maximum Humidity 100    
Minimum Humidity 84    
Precipitation  
Precipitation 0.08 in 0.08 in 0.68 in (1983)
Month to date precipitation 1.77 1.18  
Year to date precipitation 1.77 1.18  
Sea Level Pressure  
Sea Level Pressure 29.94 in    
Wind  
Wind Speed 2 mph (NNW)    
Max Wind Speed 9 mph    
Max Gust Speed 13 mph    
Visibility 4 miles    
Events Fog , Snow    
T = Trace of Precipitation, MM = Missing Value Source: NWS Daily Summary

Daily Weather History Graph

Daily Weather History Graph

Search for Another Location

Airport:

Trip Planner

Search our weather history database for the weather conditions in past years. The results will help you decide how hot, cold, wet, or windy it might be!

Date:

Astronomy

Jan. 16, 2014 Rise Set
Actual Time 7:21 AM EST 4:38 PM EST
Civil Twilight 6:49 AM EST 5:10 PM EST
Nautical Twilight 6:13 AM EST 5:46 PM EST
Astronomical Twilight 5:39 AM EST 6:21 PM EST
Moon 5:31 PM EST (1/16) 7:10 AM EST (1/16)
Length of Visible Light 10h 21m
Length of Day
9h 16m
Full, 100% of the Moon is Illuminated
Jan 16
Full
Jan 24
Last Quarter
Jan 30
New
Feb 6
First Quarter
Feb 14
Full

Hourly Weather History & Observations

Time (EST) Temp. Windchill Dew Point Humidity Pressure Visibility Wind Dir Wind Speed Gust Speed Precip Events Conditions
12:00 AM 30.9 °F 24.3 °F 30.9 °F 100% 29.90 in 6.0 mi NNW 6.9 mph - N/A   Overcast
12:51 AM 30.0 °F 24.1 °F 28.9 °F 96% 29.94 in 4.0 mi NNW 5.8 mph - 0.00 in   Overcast
1:06 AM 30.0 °F 24.1 °F 28.9 °F 96% 29.91 in 1.8 mi NNW 5.8 mph - 0.00 in Snow Light Snow
1:21 AM 30.0 °F 26.5 °F 28.9 °F 96% 29.93 in 1.2 mi North 3.5 mph - 0.00 in Snow Light Snow
1:35 AM 30.0 °F 25.2 °F 30.0 °F 100% 29.93 in 1.2 mi North 4.6 mph - 0.01 in Snow Light Snow
1:49 AM 28.4 °F 24.6 °F 28.4 °F 100% 29.93 in 1.8 mi NNE 3.5 mph - 0.01 in Snow Light Snow
1:51 AM 28.9 °F 23.9 °F 28.9 °F 100% 29.97 in 1.8 mi NNE 4.6 mph - 0.01 in Snow Light Snow
2:00 AM 28.9 °F 23.9 °F 28.9 °F 100% 29.94 in 2.0 mi North 4.6 mph - 0.00 in Snow Light Snow
2:11 AM 28.9 °F 25.2 °F 28.0 °F 96% 29.93 in 3.0 mi Variable 3.5 mph - 0.00 in Snow Light Snow
2:20 AM 28.9 °F 25.2 °F 28.0 °F 96% 29.93 in 2.5 mi North 3.5 mph - 0.00 in Snow Light Snow
2:32 AM 28.9 °F 23.9 °F 28.0 °F 96% 29.92 in 3.0 mi North 4.6 mph - 0.00 in Snow Light Snow
2:48 AM 28.4 °F 23.3 °F 26.6 °F 93% 29.92 in 6.0 mi North 4.6 mph - 0.00 in   Overcast
2:51 AM 28.9 °F 23.9 °F 27.0 °F 92% 29.96 in 7.0 mi North 4.6 mph - 0.00 in   Overcast
3:11 AM 28.9 °F 23.9 °F 27.0 °F 92% 29.91 in 4.0 mi North 4.6 mph - 0.00 in Snow Light Snow
3:20 AM 28.9 °F - 27.0 °F 92% 29.92 in 4.0 mi Calm Calm - 0.00 in Snow Light Snow
3:51 AM 28.9 °F - 27.0 °F 92% 29.96 in 7.0 mi Calm Calm - 0.00 in   Overcast
4:32 AM 28.0 °F - 27.0 °F 96% 29.92 in 8.0 mi Calm Calm - N/A   Overcast
4:51 AM 28.0 °F 24.2 °F 27.0 °F 96% 29.97 in 7.0 mi NW 3.5 mph - N/A   Overcast
4:59 AM 28.0 °F - 27.0 °F 96% 29.92 in 2.5 mi Calm Calm - 0.00 in Snow Light Snow
5:08 AM 28.0 °F 24.2 °F 27.0 °F 96% 29.92 in 1.5 mi NW 3.5 mph - 0.01 in Snow Light Snow
5:25 AM 28.0 °F 22.8 °F 27.0 °F 96% 29.92 in 1.8 mi NNW 4.6 mph - 0.01 in Snow Light Snow
5:32 AM 28.0 °F 22.8 °F 27.0 °F 96% 29.92 in 1.0 mi NNW 4.6 mph - 0.01 in Snow Light Snow
5:47 AM 28.4 °F 23.3 °F 26.6 °F 93% 29.92 in 1.5 mi NNW 4.6 mph - 0.01 in Snow Light Snow
5:51 AM 27.0 °F 20.5 °F 26.1 °F 96% 29.97 in 1.5 mi NW 5.8 mph - 0.01 in Snow Light Snow
6:11 AM 27.0 °F 21.6 °F 26.1 °F 96% 29.93 in 1.2 mi NNW 4.6 mph - 0.01 in Snow Light Snow
6:23 AM 27.0 °F 20.5 °F 26.1 °F 96% 29.93 in 1.5 mi NNW 5.8 mph - 0.01 in Snow Light Snow
6:32 AM 27.0 °F 21.6 °F 26.1 °F 96% 29.94 in 3.0 mi NW 4.6 mph - 0.01 in Snow Light Snow
6:51 AM 27.0 °F 21.6 °F 25.0 °F 92% 29.99 in 2.5 mi NW 4.6 mph - 0.01 in Snow Light Snow
6:58 AM 27.0 °F 23.0 °F 25.0 °F 92% 29.94 in 4.0 mi NNW 3.5 mph - 0.00 in Snow Light Snow
7:08 AM 27.0 °F 21.6 °F 25.0 °F 92% 29.94 in 1.8 mi NW 4.6 mph - 0.00 in Snow Light Snow
7:16 AM 27.0 °F 23.0 °F 25.0 °F 92% 29.94 in 1.5 mi North 3.5 mph - 0.01 in Snow Light Snow
7:35 AM 26.1 °F 21.9 °F 25.0 °F 96% 29.93 in 1.2 mi NNW 3.5 mph - 0.01 in Snow Light Snow
7:51 AM 26.1 °F 21.9 °F 25.0 °F 96% 29.97 in 1.2 mi North 3.5 mph - 0.01 in Snow Light Snow
8:00 AM 27.0 °F 23.0 °F 25.0 °F 92% 29.92 in 1.8 mi Variable 3.5 mph - 0.00 in Snow Light Snow
8:09 AM 27.0 °F - 26.1 °F 96% 29.91 in 2.5 mi Calm Calm - 0.00 in Snow Light Snow
8:12 AM 27.0 °F - 26.1 °F 96% 29.92 in 3.0 mi Calm Calm - 0.00 in   Overcast
8:41 AM 27.0 °F 21.6 °F 25.0 °F 92% 29.93 in 4.0 mi North 4.6 mph - 0.00 in   Overcast
8:51 AM 26.1 °F 20.5 °F 25.0 °F 96% 29.98 in 3.0 mi NW 4.6 mph - 0.00 in Snow Light Snow
9:01 AM 26.1 °F 20.5 °F 24.1 °F 92% 29.93 in 6.0 mi NNW 4.6 mph - 0.00 in   Overcast
9:12 AM 27.0 °F 21.6 °F 24.1 °F 89% 29.93 in 7.0 mi NNW 4.6 mph - 0.00 in   Overcast
9:33 AM 27.0 °F 23.0 °F 24.1 °F 89% 29.95 in 5.0 mi NNW 3.5 mph - 0.00 in   Overcast
9:51 AM 27.0 °F 23.0 °F 25.0 °F 92% 29.99 in 4.0 mi NNW 3.5 mph - 0.00 in Snow Light Snow
10:07 AM 27.0 °F 20.5 °F 25.0 °F 92% 29.95 in 5.0 mi NNW 5.8 mph - 0.00 in   Overcast
10:20 AM 27.0 °F 21.6 °F 25.0 °F 92% 29.95 in 1.8 mi NNW 4.6 mph - 0.00 in Snow Light Snow
10:24 AM 27.0 °F 21.6 °F 25.0 °F 92% 29.95 in 1.2 mi NNW 4.6 mph - 0.00 in Snow Light Snow
10:32 AM 27.0 °F 21.6 °F 25.0 °F 92% 29.95 in 0.8 mi NNW 4.6 mph - 0.00 in Snow Light Snow
10:36 AM 27.0 °F 19.5 °F 24.1 °F 89% 29.96 in 1.0 mi WNW 6.9 mph - 0.00 in Snow Light Snow
10:48 AM 26.6 °F 21.2 °F 24.8 °F 93% 29.95 in 0.5 mi NW 4.6 mph - 0.01 in Fog , Snow Snow
10:51 AM 27.0 °F 21.6 °F 25.0 °F 92% 30.00 in 0.5 mi WNW 4.6 mph - 0.01 in Fog , Snow Snow
11:06 AM 27.0 °F 21.6 °F 25.0 °F 92% 29.94 in 0.5 mi NW 4.6 mph - 0.00 in Fog , Snow Snow
11:45 AM 26.6 °F - 24.8 °F 93% 29.94 in 1.2 mi Calm Calm - 0.02 in Snow Light Snow
11:51 AM 27.0 °F - 25.0 °F 92% 29.99 in 2.0 mi Calm Calm - 0.02 in Snow Light Snow
12:00 PM 27.0 °F - 25.0 °F 92% 29.94 in 3.0 mi Calm Calm - 0.00 in Snow Light Snow
12:14 PM 27.0 °F 21.6 °F 25.0 °F 92% 29.92 in 5.0 mi North 4.6 mph - 0.00 in   Overcast
12:33 PM 27.0 °F 23.0 °F 24.1 °F 89% 29.92 in 5.0 mi NW 3.5 mph - 0.00 in Snow Light Snow
12:47 PM 26.6 °F 22.6 °F 24.8 °F 93% 29.92 in 6.0 mi North 3.5 mph - 0.00 in   Overcast
12:51 PM 27.0 °F 23.0 °F 25.0 °F 92% 29.97 in 6.0 mi NNW 3.5 mph - 0.00 in   Overcast
1:33 PM 27.0 °F - 26.1 °F 96% 29.92 in 4.0 mi Calm Calm - 0.00 in Snow Light Snow
1:51 PM 27.0 °F - 25.0 °F 92% 29.95 in 4.0 mi Calm Calm - 0.00 in   Overcast
1:55 PM 27.0 °F - 26.1 °F 96% 29.90 in 4.0 mi Calm Calm - N/A   Overcast
2:30 PM 27.0 °F 20.5 °F 25.0 °F 92% 29.91 in 6.0 mi NNE 5.8 mph - N/A   Overcast
2:51 PM 27.0 °F 23.0 °F 25.0 °F 92% 29.98 in 7.0 mi NE 3.5 mph - N/A   Overcast
3:43 PM 27.0 °F 21.6 °F 25.0 °F 92% 29.91 in 6.0 mi NE 4.6 mph - 0.00 in   Overcast
3:51 PM 27.0 °F 23.0 °F 24.1 °F 89% 29.96 in 7.0 mi NE 3.5 mph - 0.00 in   Overcast
4:08 PM 27.0 °F 23.0 °F 24.1 °F 89% 29.90 in 8.0 mi NE 3.5 mph - N/A   Overcast
4:51 PM 27.0 °F - 23.0 °F 85% 29.95 in 4.0 mi Calm Calm - 0.00 in Snow Light Snow
5:51 PM 26.1 °F - 24.1 °F 92% 29.96 in 3.0 mi Calm Calm - 0.01 in Snow Light Snow
6:05 PM 26.1 °F - 24.1 °F 92% 29.89 in 2.5 mi Calm Calm - 0.00 in Snow Light Snow
6:27 PM 26.1 °F 21.9 °F 24.1 °F 92% 29.90 in 3.0 mi NW 3.5 mph - 0.00 in Snow Light Snow
6:51 PM 26.1 °F - 24.1 °F 92% 29.95 in 4.0 mi Calm Calm - 0.00 in Snow Light Snow
7:51 PM 26.1 °F - 25.0 °F 96% 29.98 in 6.0 mi Calm Calm - 0.00 in   Overcast
8:04 PM 26.1 °F - 24.1 °F 92% 29.91 in 7.0 mi Calm Calm - N/A   Overcast
8:51 PM 26.1 °F - 24.1 °F 92% 29.98 in 8.0 mi Calm Calm - N/A   Overcast
9:04 PM 26.1 °F - 24.1 °F 92% 29.92 in 8.0 mi Calm Calm - N/A   Overcast
9:13 PM 26.1 °F 21.9 °F 24.1 °F 92% 29.92 in 8.0 mi NNW 3.5 mph - N/A   Overcast
9:36 PM 26.1 °F - 24.1 °F 92% 29.92 in 8.0 mi Calm Calm - N/A   Overcast
9:51 PM 26.1 °F - 24.1 °F 92% 29.98 in 8.0 mi Calm Calm - N/A   Overcast
10:17 PM 26.1 °F - 25.0 °F 96% 29.92 in 8.0 mi Calm Calm - N/A   Overcast
10:51 PM 26.1 °F - 25.0 °F 96% 29.97 in 7.0 mi Calm Calm - N/A   Overcast
11:42 PM 26.1 °F - 24.1 °F 92% 29.91 in 7.0 mi Calm Calm - N/A   Overcast
11:51 PM 26.1 °F - 24.1 °F 92% 29.96 in 7.0 mi Calm Calm - N/A   Overcast